Location: Beuvrequen
(50.8014°N, 1.6652°E)
Time: 03:57:44
(UTC+00:00)

Cosmos 2150 Rocket - Pass Details

Date: 16 October 2021
Orbit: 750 x 807 km, 74.0° (Epoch: 05 December)

Event Time Altitude Azimuth Distance (km) Brightness Sun altitude
Rises 18:14:22 0° 198° (SSW) 3,307 7.5 -12.7°
Reaches altitude 10° 18:16:46 10° 197° (SSW) 2,377 6.7 -13.1°
Maximum altitude 18:22:11 78° 112° (ESE) 820 4.0 -13.9°
Drops below altitude 10° 18:27:34 10° 27° (NNE) 2,365 6.3 -14.8°
Sets 18:29:57 0° 26° (NNE) 3,289 7.1 -15.2°
